Flight Track Log - Related Links

Times and Time Zones

All times are in EDT time to prevent confusion due to time zone crossing. See the CTL15 flight status page for this flight to view local times or setup timezone preferences in your user account.

Time Position Orientation Groundspeed Altitude Reporting Facility
EDT Latitude Longitude Course Direction KTS MPH feet Rate Location/Type
Mon 07:41:39 PM 39.6394 -84.1556 49° Northeast 137 158 3,500  Level Indianapolis Center
Mon 07:42:58 PM 39.6683 -84.1081 52° Northeast 126 145 5,200 1,137 Climbing Indianapolis Center
Mon 07:43:14 PM 39.6708 -84.1047 46° Northeast 128 147 5,300 1,180 Climbing Indianapolis Center
Mon 07:43:59 PM 39.6875 -84.0753 54° Northeast 122 140 6,400 1,355 Climbing Indianapolis Center
Mon 07:44:16 PM 39.6956 -84.0636 48° Northeast 125 144 6,700 532 Climbing Indianapolis Center
Mon 07:45:18 PM 39.7189 -84.0253 52° Northeast 128 147 7,100 188 Climbing Indianapolis Center
Mon 07:46:24 PM 39.7542 -83.9725 49° Northeast 176 203 7,100 -98 Level Indianapolis Center
Mon 07:47:00 PM 39.7593 -83.9446 49° Northeast  Level FlightAware Approximate
Mon 07:47:21 PM 39.7833 -83.9283 49° Northeast 172 198 6,900  Level Indianapolis Center
Mon 07:48:23 PM 39.8167 -83.8786 49° Northeast 179 206 7,200 49 Climbing Indianapolis Center
Mon 07:49:24 PM 39.8483 -83.8267 52° Northeast 180 207 7,000 -98 Descending Indianapolis Center
Mon 07:50:26 PM 39.8858 -83.7833 42° Northeast 179 206 7,000 57 Level Indianapolis Center
Mon 07:51:10 PM 39.9158 -83.7458 44° Northeast 178 205 7,100 98 Climbing Indianapolis Center
Mon 07:51:27 PM 39.9228 -83.7392 36° Northeast 178 205 7,100  Level Indianapolis Center
Mon 07:52:11 PM 39.9525 -83.7044 42° Northeast 180 207 7,100 97 Level Indianapolis Center
Mon 07:52:29 PM 39.9608 -83.6956 39° Northeast 179 206 7,200  Climbing Indianapolis Center
Mon 07:53:11 PM 39.9892 -83.6625 42° Northeast 177 204 7,100 -97 Descending Indianapolis Center
Mon 07:53:31 PM 39.9986 -83.6519 41° Northeast 178 205 7,100 90 Level Indianapolis Center
Mon 07:54:18 PM 40.0328 -83.6108 43° Northeast 180 207 7,200  Climbing Indianapolis Center
Mon 07:55:13 PM 40.0628 -83.5736 44° Northeast 181 208 7,100 -79 Descending Indianapolis Center
Mon 07:55:34 PM 40.0744 -83.5628 35° Northeast 181 208 7,100  Level Indianapolis Center
Mon 07:56:14 PM 40.1039 -83.5269 43° Northeast 182 209 7,100  Level Indianapolis Center
Mon 07:56:35 PM 40.1111 -83.5178 44° Northeast 180 207 7,100  Level Indianapolis Center
Mon 07:57:09 PM 40.1358 -83.4900 41° Northeast 180 207 7,100 -97 Level Indianapolis Center
Mon 07:57:37 PM 40.1556 -83.4661 43° Northeast 180 207 7,000 -100 Descending Indianapolis Center
Mon 07:58:09 PM 40.1747 -83.4431 43° Northeast 179 206 7,000 97 Level Indianapolis Center
Mon 07:58:39 PM 40.1925 -83.4219 42° Northeast 179 206 7,100 109 Climbing Indianapolis Center
Mon 07:59:04 PM 40.2089 -83.4033 41° Northeast 178 205 7,100  Level Indianapolis Center
Mon 07:59:40 PM 40.2292 -83.3781 44° Northeast 178 205 7,100  Level Indianapolis Center
Mon 08:00:05 PM 40.2458 -83.3586 42° Northeast 180 207 7,100  Level Indianapolis Center
Mon 08:00:42 PM 40.2661 -83.3319 45° Northeast 180 207 7,100  Level Indianapolis Center
Mon 08:01:12 PM 40.2847 -83.3089 43° Northeast 183 211 7,100  Level Indianapolis Center
Mon 08:01:43 PM 40.3028 -83.2867 43° Northeast 180 207 7,100 -65 Level Indianapolis Center
Mon 08:02:45 PM 40.3419 -83.2439 40° Northeast 181 208 7,000  Descending Indianapolis Center
Mon 08:03:47 PM 40.3786 -83.1994 43° Northeast 179 206 7,100  Climbing Indianapolis Center
Mon 08:04:48 PM 40.4169 -83.1517 43° Northeast 186 214 7,000 -49 Descending Indianapolis Center
Mon 08:05:50 PM 40.4542 -83.1067 43° Northeast 182 209 7,000  Level Indianapolis Center
Mon 08:06:51 PM 40.4911 -83.0617 43° Northeast 180 207 7,000  Level Indianapolis Center
Mon 08:07:53 PM 40.5336 -83.0125 41° Northeast 181 208 7,000 -49 Level Indianapolis Center
Mon 08:08:54 PM 40.5700 -82.9669 44° Northeast 179 206 6,900  Descending Indianapolis Center
Mon 08:09:56 PM 40.6050 -82.9175 47° Northeast 182 209 7,000 98 Climbing Indianapolis Center
Mon 08:10:57 PM 40.6317 -82.8589 59° Northeast 184 212 7,100 49 Climbing Indianapolis Center
Mon 08:11:59 PM 40.6578 -82.7992 60° Northeast 186 214 7,100 -97 Level Indianapolis Center
Mon 08:13:01 PM 40.6878 -82.7431 55° Northeast 186 214 6,900 -49 Descending Indianapolis Center
Mon 08:14:02 PM 40.7161 -82.6822 58° Northeast 191 220 7,000 49 Climbing Indianapolis Center
Mon 08:15:04 PM 40.7447 -82.6256 56° Northeast 186 214 7,000  Level Indianapolis Center

Login

Don't have an account? Register now (free) for customized features, flight alerts, and more!